EW3751 Weather Reports


time (UTC)temp
C
wind
direction
speed
KPH
gust
KPH
rain 1hr
cm
rain 24hr
cm
rain mn
cm
humidity
%
barometer
mb
20260506144704 11 45 8.0 16.1 0.00 14.10 8.46 98 1005.5
20260506144204 11 83 8.0 17.7 0.00 14.10 8.46 98 1005.4
20260506143705 10 83 9.7 17.7 0.00 14.10 8.46 98 1005.4
20260506143204 10 93 9.7 17.7 0.00 14.10 8.46 98 1005.4
20260506142705 10 325 6.4 17.7 0.00 14.10 8.46 98 1005.5
20260506142204 10 53 11.3 17.7 0.00 14.10 8.46 98 1005.5
20260506141706 10 25 8.0 17.7 0.00 14.10 8.46 98 1005.6
20260506141204 10 38 6.4 17.7 0.00 14.10 8.46 98 1005.6
20260506140704 10 78 3.2 17.7 0.00 14.10 8.46 98 1005.6
20260506140204 10 13 6.4 17.7 0.00 14.10 8.46 98 1005.7
20260506135706 10 18 3.2 16.1 0.00 14.10 8.46 98 1005.6
20260506135204 10 0 3.2 16.1 0.00 14.10 8.46 98 1005.6
20260506134704 10 65 8.0 16.1 0.00 14.10 8.46 98 1005.6
20260506134206 10 73 11.3 16.1 0.00 14.10 8.46 98 1005.6
20260506133704 10 43 6.4 16.1 0.00 14.10 8.46 98 1005.6
20260506132704 10 45 8.0 16.1 0.00 14.10 8.46 98 1005.6
20260506132206 10 23 6.4 16.1 0.00 14.10 8.46 98 1005.6
20260506131706 10 38 14.5 16.1 0.00 14.10 8.46 98 1005.5
20260506130206 10 83 4.8 16.1 0.00 14.10 8.46 98 1005.6
20260506125704 10 65 4.8 16.1 0.00 14.10 8.46 98 1005.5
20260506125204 10 103 4.8 16.1 0.00 14.10 8.46 98 1005.5
20260506124706 10 33 11.3 14.5 0.00 14.10 8.46 98 1005.4
20260506124205 10 73 11.3 14.5 0.00 14.10 8.46 98 1005.5
20260506123704 10 25 9.7 14.5 0.00 14.10 8.46 98 1005.5
20260506123206 10 8 6.4 14.5 0.00 14.10 8.46 98 1005.6
20260506122705 10 53 11.3 14.5 0.00 14.10 8.46 98 1005.6
20260506122204 10 43 4.8 14.5 0.00 14.10 8.46 98 1005.5
20260506121705 10 23 3.2 14.5 0.00 14.10 8.46 98 1005.6
20260506121205 10 78 6.4 17.7 0.00 14.10 8.46 98 1005.5
20260506120706 10 43 3.2 17.7 0.00 14.10 8.46 98 1005.4
20260506115206 10 25 6.4 16.1 0.00 14.10 8.46 98 1005.4
20260506114704 10 83 4.8 16.1 0.00 14.10 8.46 98 1005.3
20260506114209 10 43 9.7 17.7 0.00 14.10 8.46 98 1005.3
20260506113706 10 358 6.4 17.7 0.00 14.10 8.46 98 1005.4
20260506113204 10 73 11.3 17.7 0.00 14.10 8.46 98 1005.4
20260506112707 10 13 4.8 17.7 0.00 14.10 8.46 98 1005.5
20260506112207 10 38 4.8 17.7 0.00 14.10 8.46 98 1005.4
20260506111704 10 53 3.2 16.1 0.00 14.10 8.46 98 1005.5
20260506111204 10 55 11.3 17.7 0.00 14.10 8.46 98 1005.5
20260506110705 10 53 11.3 17.7 0.00 14.10 8.46 99 1005.5
20260506110223 10 38 6.4 17.7 0.00 14.10 8.46 99 1005.4
20260506105704 10 65 16.1 17.7 2.82 14.10 8.46 99 1005.3
20260506105215 10 55 9.7 17.7 2.82 14.10 8.46 99 1005.3
20260506104705 9 65 12.9 17.7 2.82 14.10 8.46 99 1005.3
20260506104211 9 55 9.7 17.7 2.82 14.10 8.46 99 1005.4
20260506103205 9 38 9.7 17.7 2.82 14.10 8.46 99 1005.3
20260506102704 9 93 6.4 17.7 5.64 14.10 8.46 99 1005.4
20260506102211 9 18 8.0 17.7 5.64 14.10 8.46 99 1005.3
20260506101704 9 85 6.4 17.7 5.64 14.10 8.46 99 1005.3
20260506101204 9 45 11.3 17.7 5.64 14.10 8.46 99 1005.4
20260506100704 9 53 11.3 17.7 5.64 14.10 8.46 99 1005.4
20260506100231 9 13 9.7 17.7 5.64 14.10 8.46 99 1005.4
20260506095704 9 45 12.9 17.7 2.82 11.28 5.64 99 1005.3
20260506095206 9 53 6.4 17.7 2.82 11.28 5.64 99 1005.4
20260506094704 9 343 8.0 17.7 2.82 11.28 5.64 99 1005.3
20260506093705 9 33 11.3 16.1 2.82 11.28 5.64 99 1005.2
20260506093206 9 85 6.4 16.1 2.82 11.28 5.64 99 1005.2
20260506092704 9 43 8.0 16.1 0.00 8.46 2.82 99 1005.3
20260506092205 9 8 9.7 16.1 0.00 8.46 2.82 99 1005.2
20260506091706 8 25 12.9 16.1 0.00 8.46 2.82 99 1005.1
20260506091205 8 353 8.0 16.1 0.00 8.46 2.82 99 1005.1
20260506090704 8 0 4.8 16.1 0.00 8.46 2.82 99 1005.1
20260506090204 8 18 6.4 16.1 0.00 8.46 2.82 99 1005.1
20260506085706 8 38 12.9 16.1 0.00 8.46 2.82 99 1005.1
20260506085204 8 25 6.4 16.1 0.00 8.46 2.82 99 1005.1
20260506084704 8 113 9.7 16.1 0.00 8.46 2.82 99 1005.0
20260506083204 8 358 9.7 16.1 0.00 8.46 2.82 99 1005.0
20260506082706 8 0 9.7 16.1 0.00 8.46 2.82 99 1004.9
20260506082204 8 18 12.9 16.1 0.00 8.46 2.82 99 1004.9
20260506081704 8 38 6.4 16.1 0.00 8.46 2.82 99 1004.9
20260506081204 8 353 6.4 16.1 0.00 8.46 2.82 99 1004.8
20260506080705 8 18 11.3 16.1 0.00 8.46 2.82 99 1004.9
20260506080205 8 38 11.3 16.1 0.00 8.46 2.82 99 1004.8
20260506073206 8 8 6.4 17.7 0.00 8.46 2.82 99 1004.7
20260506072204 8 13 8.0 17.7 0.00 8.46 2.82 99 1004.7
20260506071705 8 73 3.2 17.7 0.00 8.46 2.82 99 1004.6
20260506071206 8 63 8.0 16.1 0.00 8.46 2.82 99 1004.6
20260506070705 8 63 9.7 16.1 0.00 8.46 2.82 99 1004.7
20260506070204 8 38 9.7 16.1 0.00 8.46 2.82 99 1004.6
20260506061705 8 25 9.7 14.5 0.00 8.46 2.82 99 1004.4
20260506061230 8 23 8.0 14.5 0.00 8.46 2.82 99 1004.3
20260506060704 8 33 8.0 14.5 0.00 8.46 2.82 99 1004.3
20260506060226 8 25 11.3 14.5 0.00 8.46 2.82 99 1004.3
20260506051205 8 38 6.4 14.5 0.00 8.46 2.82 99 1004.3
20260506050706 8 55 8.0 14.5 0.00 8.46 2.82 99 1004.3
20260506050205 8 8 8.0 14.5 0.00 11.28 2.82 99 1004.4
20260506044706 8 253 3.2 14.5 0.00 11.28 2.82 99 1004.5
20260506044205 8 38 6.4 14.5 0.00 11.28 2.82 99 1004.5
20260506043205 8 25 6.4 12.9 0.00 11.28 2.82 99 1004.4
20260506042710 8 38 6.4 12.9 0.00 11.28 2.82 99 1004.6
20260506042205 8 25 9.7 12.9 0.00 11.28 2.82 99 1004.4
20260506041705 8 33 8.0 12.9 0.00 11.28 2.82 99 1004.5
20260506041204 8 23 6.4 12.9 0.00 11.28 2.82 99 1004.4
20260506040706 8 73 4.8 12.9 0.00 11.28 2.82 99 1004.5
20260506040204 9 0 4.8 12.9 0.00 11.28 2.82 99 1004.5
20260506035705 9 13 9.7 12.9 0.00 14.10 2.82 99 1004.5
20260506035206 9 13 3.2 12.9 0.00 14.10 2.82 99 1004.5
20260506034705 9 43 3.2 12.9 0.00 14.10 2.82 99 1004.6
20260506034204 9 33 9.7 17.7 0.00 14.10 2.82 99 1004.5
20260506033705 9 45 6.4 17.7 0.00 14.10 2.82 99 1004.6
20260506033206 9 53 6.4 17.7 0.00 14.10 2.82 99 1004.5
20260506032704 9 353 9.7 12.9 0.00 14.10 2.82 99 1004.6
20260506032205 9 33 4.8 12.9 0.00 14.10 2.82 99 1004.7
20260506031206 9 43 12.9 16.1 0.00 14.10 2.82 99 1004.6
20260506030705 9 23 8.0 16.1 0.00 14.10 2.82 99 1004.7
20260506030206 9 43 8.0 16.1 0.00 14.10 2.82 99 1004.7
20260506025705 9 8 6.4 16.1 0.00 14.10 2.82 99 1004.8
20260506025204 10 23 14.5 14.5 0.00 14.10 2.82 99 1004.8
20260506024704 10 13 9.7 14.5 0.00 14.10 2.82 99 1004.9
20260506024204 10 18 6.4 20.9 0.00 14.10 2.82 99 1005.0
20260506023706 10 63 4.8 20.9 0.00 14.10 2.82 99 1005.0
20260506023204 10 38 6.4 20.9 0.00 14.10 2.82 99 1005.0
20260506022706 10 353 6.4 20.9 0.00 14.10 2.82 98 1005.0
20260506022205 10 353 6.4 20.9 0.00 14.10 2.82 98 1005.1
20260506021704 10 13 11.3 20.9 0.00 14.10 2.82 98 1005.1
20260506021205 10 38 3.2 20.9 0.00 14.10 2.82 98 1005.1
20260506020204 10 45 11.3 17.7 0.00 14.10 2.82 98 1005.2
20260506015704 10 18 9.7 17.7 0.00 14.10 2.82 98 1005.2
20260506015204 10 33 6.4 17.7 0.00 14.10 2.82 98 1005.3
20260506014706 10 353 4.8 17.7 0.00 14.10 2.82 98 1005.3
20260506014205 10 53 6.4 17.7 0.00 14.10 2.82 98 1005.3
20260506013704 10 65 6.4 16.1 0.00 14.10 2.82 98 1005.3
20260506012207 10 38 9.7 16.1 0.00 14.10 2.82 98 1005.3
20260506011704 10 43 8.0 14.5 0.00 14.10 2.82 98 1005.3
20260506011204 10 18 6.4 17.7 0.00 14.10 2.82 98 1005.3
20260506010706 10 8 6.4 17.7 0.00 14.10 2.82 98 1005.4
20260506010205 10 23 9.7 17.7 0.00 14.10 2.82 98 1005.4
20260506004704 10 85 3.2 17.7 2.82 14.10 2.82 98 1005.4
20260506003704 10 53 16.1 16.1 2.82 14.10 2.82 98 1005.6
20260506003204 10 13 9.7 16.1 2.82 14.10 2.82 98 1005.5
20260506002705 10 38 9.7 16.1 2.82 14.10 2.82 98 1005.6
20260506002205 10 33 9.7 14.5 2.82 14.10 2.82 98 1005.6
20260506001704 10 65 3.2 14.5 2.82 14.10 2.82 98 1005.7
20260506001204 10 45 6.4 17.7 2.82 14.10 2.82 98 1005.7
20260506000706 10 45 9.7 17.7 2.82 14.10 2.82 98 1005.7
20260506000205 10 65 3.2 17.7 2.82 14.10 2.82 98 1005.8
20260505235704 10 45 8.0 17.7 2.82 14.10 2.82 98 1005.8
20260505235206 10 8 9.7 17.7 0.00 11.28 0.00 98 1005.8
20260505234704 10 38 6.4 14.5 0.00 11.28 0.00 98 1005.9
20260505234205 10 0 8.0 20.9 0.00 11.28 0.00 98 1006.0
20260505233706 10 78 6.4 20.9 0.00 11.28 0.00 98 1006.0
20260505233205 10 358 4.8 20.9 0.00 11.28 0.00 98 1006.1
20260505232704 10 13 11.3 20.9 0.00 11.28 0.00 98 1006.1
20260505232204 10 25 8.0 20.9 0.00 11.28 0.00 98 1006.2
20260505231706 10 38 6.4 19.3 0.00 11.28 0.00 98 1006.2
20260505231206 10 38 12.9 17.7 0.00 11.28 0.00 97 1006.1
20260505230704 10 55 8.0 17.7 0.00 11.28 0.00 97 1006.3
20260505225205 10 63 6.4 14.5 0.00 11.28 0.00 97 1006.3
20260505224705 11 23 12.9 14.5 2.82 11.28 0.00 97 1006.3
20260505224206 11 25 6.4 19.3 2.82 11.28 0.00 97 1006.4
20260505223704 11 25 12.9 19.3 2.82 11.28 0.00 97 1006.3
20260505223204 11 265 1.6 19.3 2.82 11.28 0.00 97 1006.3
20260505222706 11 38 9.7 19.3 2.82 11.28 0.00 97 1006.3
20260505222205 11 73 8.0 19.3 2.82 11.28 0.00 97 1006.3
20260505221705 11 53 3.2 19.3 2.82 11.28 0.00 97 1006.4
20260505221206 11 45 12.9 19.3 2.82 11.28 0.00 97 1006.5
20260505220705 11 43 12.9 17.7 2.82 11.28 0.00 96 1006.5
20260505220204 11 38 6.4 17.7 2.82 11.28 11.28 96 1006.6
20260505215706 11 23 9.7 17.7 2.82 11.28 11.28 96 1006.5
20260505215204 11 23 12.9 17.7 2.82 11.28 11.28 96 1006.5
20260505214704 11 0 9.7 14.5 0.00 8.46 8.46 96 1006.5
20260505214205 11 38 8.0 17.7 0.00 8.46 8.46 96 1006.7
20260505213205 11 335 6.4 17.7 0.00 8.46 8.46 95 1006.8
20260505212706 11 38 9.7 17.7 0.00 8.46 8.46 95 1006.8
20260505212206 11 43 9.7 17.7 0.00 8.46 8.46 95 1006.8
20260505211704 11 25 9.7 14.5 0.00 8.46 8.46 95 1006.8
20260505211204 11 25 3.2 20.9 0.00 8.46 8.46 95 1006.8
20260505210705 11 45 4.8 20.9 0.00 8.46 8.46 95 1006.7
20260505210204 11 0 4.8 20.9 0.00 8.46 8.46 95 1006.9
20260505205704 11 38 11.3 20.9 0.00 8.46 8.46 95 1006.8
20260505205206 11 333 4.8 20.9 0.00 8.46 8.46 95 1006.9
20260505204704 11 38 9.7 20.9 0.00 8.46 8.46 95 1007.0
20260505204204 11 18 9.7 24.1 0.00 8.46 8.46 95 1007.0
20260505203706 11 55 14.5 24.1 0.00 11.28 8.46 95 1007.0
20260505203204 11 63 11.3 24.1 0.00 11.28 8.46 95 1006.9
20260505202705 11 38 12.9 24.1 0.00 11.28 8.46 95 1007.0
20260505202206 11 18 12.9 24.1 0.00 11.28 8.46 95 1006.9
20260505201704 11 85 6.4 24.1 0.00 11.28 8.46 94 1006.9
20260505201204 11 25 12.9 24.1 0.00 11.28 8.46 94 1006.9
20260505200704 11 45 4.8 20.9 0.00 11.28 8.46 94 1006.9
20260505195204 11 43 11.3 20.9 0.00 11.28 8.46 95 1006.9
20260505194206 11 55 3.2 20.9 0.00 11.28 8.46 95 1007.0
20260505193706 11 33 16.1 20.9 0.00 11.28 8.46 95 1006.9
20260505193204 11 335 8.0 20.9 0.00 11.28 8.46 95 1007.1
20260505192706 11 38 9.7 20.9 0.00 11.28 8.46 94 1007.1
20260505192204 11 13 9.7 20.9 0.00 11.30 8.46 94 1006.9
20260505191705 11 25 11.3 20.9 0.00 11.35 8.46 94 1006.9
20260505191209 11 45 16.1 17.7 0.00 11.38 8.46 94 1007.0
20260505190704 11 0 8.0 17.7 0.00 11.38 8.46 94 1006.9
20260505190205 11 343 3.2 17.7 0.00 11.38 8.46 94 1006.9
20260505185204 11 0 9.7 17.7 0.00 11.38 8.46 93 1006.9
20260505184705 12 8 6.4 17.7 0.00 11.38 8.46 93 1006.9
20260505184206 12 0 9.7 19.3 0.00 11.38 8.46 93 1007.0
20260505183704 12 43 17.7 19.3 0.00 11.38 8.46 93 1007.0
20260505183204 12 273 3.2 19.3 0.00 11.38 8.46 93 1007.1
20260505182204 12 115 9.7 19.3 2.82 14.10 8.46 93 1007.1
20260505181206 12 23 12.9 22.5 2.82 14.10 8.46 92 1007.1
20260505180705 12 18 9.7 22.5 2.82 14.10 8.46 92 1007.0
20260505180204 12 45 9.7 22.5 2.82 14.10 8.46 92 1007.0
20260505175704 12 18 6.4 22.5 2.82 14.10 8.46 92 1007.0
20260505175207 12 358 6.4 22.5 2.82 14.10 8.46 92 1006.9
20260505174705 12 38 6.4 22.5 2.82 14.10 8.46 92 1006.9
20260505172704 12 33 6.4 19.3 0.00 11.28 5.64 91 1007.1
20260505172205 12 45 4.8 19.3 0.00 11.28 5.64 91 1007.1
20260505171705 12 13 9.7 19.3 0.00 11.28 5.64 91 1007.1
20260505171204 12 25 14.5 19.3 0.00 11.28 5.64 91 1007.1
20260505170705 12 33 4.8 19.3 0.00 11.28 5.64 90 1007.2
20260505170204 12 95 6.4 19.3 0.00 11.28 5.64 90 1007.3
20260505165704 13 25 6.4 16.1 0.00 11.28 5.64 91 1007.3
20260505165205 13 43 8.0 16.1 0.00 11.28 5.64 90 1007.4
20260505164705 13 43 8.0 16.1 0.00 11.28 5.64 90 1007.4
20260505164205 13 43 4.8 16.1 0.00 11.28 5.64 90 1007.3
20260505163705 13 25 8.0 16.1 0.00 11.28 5.64 90 1007.3
20260505163206 13 18 8.0 16.1 0.00 11.28 5.64 90 1007.3
20260505162206 13 55 14.5 16.1 0.00 11.28 5.64 90 1007.3
20260505161206 13 33 8.0 19.3 0.00 11.28 5.64 89 1007.4
20260505160706 13 63 6.4 19.3 0.00 11.28 5.64 89 1007.3
20260505160205 13 65 8.0 19.3 0.00 11.28 5.64 89 1007.3
20260505153206 13 63 4.8 16.1 0.00 11.28 5.64 89 1007.4
20260505152704 13 23 8.0 14.5 0.00 11.28 5.64 90 1007.5
20260505152205 13 33 9.7 14.5 0.00 11.28 5.64 89 1007.5
20260505151707 13 0 9.7 14.5 0.00 11.28 5.64 89 1007.5
20260505151204 13 13 6.4 17.7 0.00 11.28 5.64 89 1007.6
20260505150704 13 55 8.0 17.7 0.00 11.28 5.64 89 1007.7
20260505150206 13 0 6.4 17.7 0.00 11.28 5.64 89 1007.6